{"data":{"norad_id":65348,"intl_designator":"2025-189AB","name":"STARLINK-34859","alt_names":[],"object_type":"PAYLOAD","status":"ACTIVE","operator":null,"country":"US","launch_date":"2025-08-27","launch_site_code":"AFETR","launch_vehicle":null,"mission":null,"orbit_class":"UNKNOWN","rcs_meters":null,"size_class":null,"mass_kg":null,"dimensions":null,"purposes":["comms"],"wikipedia_slug":null,"has_3d_model":false,"image_url":null,"decayed_at":null,"tle_current":{"epoch":"2026-09-20T13:14:53.112768Z","epoch_age_seconds":112981,"freshness":"FRESH","line1":"1 65348U 25189AB  26263.55200362  .00035013  00000+0  10432-2 0  9996","line2":"2 65348  53.1584  19.3161 0001006  96.2153 263.8964 15.34380482 60976","mean_motion":15.34380482,"eccentricity":0.0001006,"inclination_deg":53.1584,"raan_deg":19.3161,"arg_perigee_deg":96.2153,"mean_anomaly_deg":263.8964,"bstar":0.0010432,"rev_number":6097,"period_min":93.848951866425,"perigee_km":462.07305806709,"apogee_km":463.44944679547,"semimajor_km":6840.8982524313,"source":"CELESTRAK","updated_at":"2026-09-21T09:00:35.574161Z"}}}